| time (UTC) | temp F | wind direction | speed MPH | gust MPH | rain 1hr in | rain 24hr in | rain mn in | humidity % | barometer mb |
| 20260504025703 | 43 | 326 | 0.0 | 0.0 | 0.00 | 0.00 | 0.00 | 75 | 1013.8 |
| 20260504025507 | 42 | 326 | 0.0 | 0.0 | 0.00 | 0.00 | 0.00 | 75 | 1030.5 |
| 20260504025204 | 42 | 327 | 0.0 | 0.0 | 0.00 | 0.00 | 0.00 | 77 | 1013.8 |
| 20260504025004 | 42 | 327 | 0.0 | 0.0 | 0.00 | 0.00 | 0.00 | 78 | 1030.6 |
| 20260504024703 | 41 | 327 | 0.0 | 0.0 | 0.00 | 0.00 | 0.00 | 78 | 1013.9 |
| 20260504024500 | 42 | 327 | 0.0 | 0.0 | 0.00 | 0.00 | 0.00 | 78 | 1030.7 |
| 20260504024203 | 42 | 327 | 0.0 | 0.0 | 0.00 | 0.00 | 0.00 | 78 | 1014.0 |
| 20260504023958 | 42 | 327 | 0.0 | 0.0 | 0.00 | 0.00 | 0.00 | 78 | 1030.5 |
| 20260504023704 | 43 | 327 | 0.0 | 0.0 | 0.00 | 0.00 | 0.00 | 77 | 1013.8 |
| 20260504023454 | 43 | 327 | 0.0 | 0.0 | 0.00 | 0.00 | 0.00 | 76 | 1030.8 |
| 20260504023203 | 43 | 327 | 0.0 | 0.0 | 0.00 | 0.00 | 0.00 | 74 | 1014.0 |
| 20260504022950 | 44 | 327 | 0.0 | 0.0 | 0.00 | 0.00 | 0.00 | 74 | 1030.6 |
| 20260504022703 | 43 | 327 | 0.0 | 0.0 | 0.00 | 0.00 | 0.00 | 74 | 1014.0 |
| 20260504022446 | 43 | 326 | 0.0 | 0.0 | 0.00 | 0.00 | 0.00 | 74 | 1030.7 |
| 20260504022203 | 43 | 326 | 0.0 | 0.0 | 0.00 | 0.00 | 0.00 | 74 | 1013.9 |
| 20260504021943 | 43 | 326 | 0.0 | 0.0 | 0.00 | 0.00 | 0.00 | 74 | 1030.5 |
| 20260504021704 | 43 | 326 | 0.0 | 0.0 | 0.00 | 0.00 | 0.00 | 73 | 1014.0 |
| 20260504021440 | 44 | 326 | 0.0 | 0.0 | 0.00 | 0.00 | 0.00 | 73 | 1030.6 |
| 20260504021204 | 44 | 327 | 0.0 | 0.0 | 0.00 | 0.00 | 0.00 | 72 | 1013.9 |
| 20260504020937 | 44 | 326 | 0.0 | 0.0 | 0.00 | 0.00 | 0.00 | 72 | 1030.7 |
| 20260504020704 | 45 | 326 | 0.0 | 0.0 | 0.00 | 0.00 | 0.00 | 70 | 1014.0 |
| 20260504020434 | 45 | 326 | 0.0 | 0.0 | 0.00 | 0.00 | 0.00 | 70 | 1030.5 |
| 20260504015931 | 45 | 326 | 0.0 | 0.0 | 0.00 | 0.00 | 0.00 | 70 | 1030.7 |
| 20260504015703 | 45 | 326 | 0.0 | 0.0 | 0.00 | 0.00 | 0.00 | 70 | 1014.0 |
| 20260504015426 | 45 | 326 | 0.0 | 0.0 | 0.00 | 0.00 | 0.00 | 69 | 1030.7 |
| 20260504015204 | 45 | 326 | 0.0 | 0.0 | 0.00 | 0.00 | 0.00 | 71 | 1013.9 |
| 20260504014923 | 45 | 326 | 0.0 | 0.0 | 0.00 | 0.00 | 0.00 | 71 | 1030.5 |
| 20260504014704 | 45 | 326 | 0.0 | 0.0 | 0.00 | 0.00 | 0.00 | 70 | 1013.7 |
| 20260504014419 | 46 | 326 | 0.0 | 0.0 | 0.00 | 0.00 | 0.00 | 67 | 1030.6 |
| 20260504013916 | 46 | 326 | 0.0 | 0.0 | 0.00 | 0.00 | 0.00 | 64 | 1030.6 |
| 20260504013704 | 47 | 326 | 0.0 | 0.0 | 0.00 | 0.00 | 0.00 | 63 | 1013.6 |
| 20260504013415 | 47 | 326 | 0.0 | 0.0 | 0.00 | 0.00 | 0.00 | 64 | 1030.3 |
| 20260504013204 | 47 | 327 | 0.0 | 0.0 | 0.00 | 0.00 | 0.00 | 64 | 1013.8 |
| 20260504012910 | 47 | 326 | 0.0 | 0.0 | 0.00 | 0.00 | 0.00 | 63 | 1030.4 |
| 20260504012704 | 47 | 326 | 0.0 | 0.0 | 0.00 | 0.00 | 0.00 | 62 | 1013.8 |
| 20260504012408 | 47 | 326 | 0.0 | 0.0 | 0.00 | 0.00 | 0.00 | 60 | 1030.2 |
| 20260504012204 | 47 | 327 | 0.0 | 0.0 | 0.00 | 0.00 | 0.00 | 61 | 1013.7 |
| 20260504011905 | 47 | 327 | 0.0 | 0.0 | 0.00 | 0.00 | 0.00 | 61 | 1030.5 |
| 20260504011704 | 47 | 327 | 0.0 | 0.0 | 0.00 | 0.00 | 0.00 | 62 | 1013.7 |
| 20260504011402 | 48 | 327 | 0.0 | 0.0 | 0.00 | 0.00 | 0.00 | 61 | 1030.0 |
| 20260504010858 | 47 | 327 | 0.0 | 0.0 | 0.00 | 0.00 | 0.00 | 59 | 1030.4 |
| 20260504010704 | 47 | 327 | 0.0 | 0.0 | 0.00 | 0.00 | 0.00 | 60 | 1013.5 |
| 20260504010354 | 48 | 326 | 0.0 | 0.0 | 0.00 | 0.00 | 0.00 | 59 | 1030.3 |
| 20260504010204 | 48 | 326 | 0.0 | 0.0 | 0.00 | 0.00 | 0.00 | 58 | 1013.5 |
| 20260504005850 | 48 | 326 | 0.0 | 0.0 | 0.00 | 0.00 | 0.00 | 57 | 1030.2 |
| 20260504005704 | 49 | 326 | 0.0 | 0.0 | 0.00 | 0.00 | 0.00 | 56 | 1013.4 |
| 20260504005347 | 49 | 326 | 0.0 | 0.0 | 0.00 | 0.00 | 0.00 | 55 | 1029.9 |
| 20260504005204 | 49 | 327 | 0.0 | 0.0 | 0.00 | 0.00 | 0.00 | 54 | 1013.5 |
| 20260504004845 | 49 | 327 | 0.0 | 0.0 | 0.00 | 0.00 | 0.00 | 55 | 1030.0 |
| 20260504004704 | 50 | 326 | 0.0 | 0.0 | 0.00 | 0.00 | 0.00 | 55 | 1013.2 |
| 20260504004343 | 50 | 326 | 0.0 | 0.0 | 0.00 | 0.00 | 0.00 | 53 | 1030.2 |
| 20260504004204 | 50 | 326 | 0.0 | 0.0 | 0.00 | 0.00 | 0.00 | 54 | 1013.1 |
| 20260504003839 | 50 | 326 | 0.0 | 0.0 | 0.00 | 0.00 | 0.00 | 53 | 1030.1 |
| 20260504003704 | 51 | 327 | 0.0 | 0.0 | 0.00 | 0.00 | 0.00 | 52 | 1013.3 |
| 20260504003336 | 51 | 326 | 0.0 | 0.0 | 0.00 | 0.00 | 0.00 | 53 | 1029.8 |
| 20260504002832 | 51 | 326 | 0.0 | 0.0 | 0.00 | 0.00 | 0.00 | 53 | 1029.8 |
| 20260504002329 | 51 | 326 | 0.0 | 0.0 | 0.00 | 0.00 | 0.00 | 54 | 1029.7 |
| 20260504002204 | 52 | 326 | 0.0 | 0.0 | 0.00 | 0.00 | 0.00 | 52 | 1013.0 |
| 20260504001827 | 52 | 326 | 0.0 | 0.0 | 0.00 | 0.00 | 0.00 | 52 | 1029.5 |
| 20260504001703 | 52 | 326 | 0.0 | 0.0 | 0.00 | 0.00 | 0.00 | 51 | 1012.9 |
| 20260504001324 | 52 | 326 | 0.0 | 0.0 | 0.00 | 0.00 | 0.00 | 51 | 1029.6 |
| 20260504000821 | 52 | 327 | 0.0 | 0.0 | 0.00 | 0.00 | 0.00 | 52 | 1029.6 |
| 20260504000318 | 52 | 257 | 0.0 | 0.0 | 0.00 | 0.00 | 0.00 | 51 | 1029.4 |
| 20260504000204 | 52 | 258 | 0.0 | 0.0 | 0.00 | 0.00 | 0.00 | 51 | 1012.9 |
| 20260503235815 | 53 | 123 | 0.0 | 0.0 | 0.00 | 0.00 | 0.00 | 52 | 1029.2 |
| 20260503235703 | 53 | 119 | 0.0 | 0.0 | 0.00 | 0.00 | 0.00 | 51 | 1012.7 |
| 20260503235313 | 53 | 268 | 0.0 | 0.0 | 0.00 | 0.00 | 0.00 | 50 | 1029.2 |
| 20260503235204 | 53 | 289 | 0.0 | 0.0 | 0.00 | 0.00 | 0.00 | 50 | 1012.6 |
| 20260503234810 | 54 | 300 | 0.0 | 0.0 | 0.00 | 0.00 | 0.00 | 50 | 1029.3 |
| 20260503234308 | 54 | 331 | 0.0 | 0.0 | 0.00 | 0.00 | 0.00 | 48 | 1029.1 |
| 20260503234204 | 54 | 284 | 0.0 | 0.0 | 0.00 | 0.00 | 0.00 | 47 | 1012.6 |
| 20260503233806 | 55 | 268 | 0.0 | 0.0 | 0.00 | 0.00 | 0.00 | 46 | 1029.4 |
| 20260503233705 | 55 | 279 | 0.0 | 0.0 | 0.00 | 0.00 | 0.00 | 48 | 1012.6 |
| 20260503233300 | 55 | 279 | 0.0 | 0.0 | 0.00 | 0.00 | 0.00 | 46 | 1029.2 |
| 20260503233203 | 55 | 286 | 0.0 | 0.0 | 0.00 | 0.00 | 0.00 | 47 | 1012.5 |
| 20260503232758 | 56 | 277 | 0.0 | 0.0 | 0.00 | 0.00 | 0.00 | 46 | 1029.2 |
| 20260503232704 | 56 | 264 | 0.0 | 0.0 | 0.00 | 0.00 | 0.00 | 46 | 1012.5 |
| 20260503232255 | 56 | 252 | 0.0 | 0.0 | 0.00 | 0.00 | 0.00 | 44 | 1029.2 |
| 20260503232204 | 56 | 244 | 0.0 | 0.0 | 0.00 | 0.00 | 0.00 | 45 | 1012.5 |
| 20260503231753 | 57 | 281 | 0.0 | 0.0 | 0.00 | 0.00 | 0.00 | 44 | 1029.1 |
| 20260503231704 | 56 | 262 | 0.0 | 1.0 | 0.00 | 0.00 | 0.00 | 43 | 1012.7 |
| 20260503231250 | 57 | 197 | 0.0 | 2.0 | 0.00 | 0.00 | 0.00 | 43 | 1029.3 |
| 20260503231204 | 56 | 128 | 0.0 | 1.0 | 0.00 | 0.00 | 0.00 | 43 | 1012.6 |
| 20260503230746 | 57 | 251 | 0.0 | 0.0 | 0.00 | 0.00 | 0.00 | 45 | 1029.3 |
| 20260503230704 | 57 | 248 | 0.0 | 1.0 | 0.00 | 0.00 | 0.00 | 44 | 1012.6 |
| 20260503230244 | 57 | 263 | 0.0 | 0.0 | 0.00 | 0.00 | 0.00 | 43 | 1029.1 |
| 20260503225741 | 57 | 270 | 0.0 | 0.0 | 0.00 | 0.00 | 0.00 | 45 | 1029.2 |
| 20260503225704 | 58 | 275 | 0.0 | 3.0 | 0.00 | 0.00 | 0.00 | 43 | 1012.4 |
| 20260503225241 | 58 | 303 | 0.0 | 0.0 | 0.00 | 0.00 | 0.00 | 43 | 1028.9 |
| 20260503225204 | 58 | 293 | 0.0 | 8.0 | 0.00 | 0.00 | 0.00 | 42 | 1012.6 |
| 20260503224738 | 58 | 287 | 0.0 | 0.0 | 0.00 | 0.00 | 0.00 | 43 | 1029.1 |
| 20260503224703 | 58 | 269 | 0.0 | 1.0 | 0.00 | 0.00 | 0.00 | 42 | 1012.4 |
| 20260503224236 | 58 | 275 | 0.0 | 0.0 | 0.00 | 0.00 | 0.00 | 42 | 1029.1 |
| 20260503224204 | 58 | 273 | 1.0 | 8.0 | 0.00 | 0.00 | 0.00 | 42 | 1012.3 |
| 20260503223733 | 58 | 273 | 0.0 | 8.0 | 0.00 | 0.00 | 0.00 | 41 | 1029.0 |
| 20260503223704 | 58 | 249 | 2.0 | 8.0 | 0.00 | 0.00 | 0.00 | 42 | 1012.2 |
| 20260503223231 | 58 | 336 | 1.0 | 5.0 | 0.00 | 0.00 | 0.00 | 41 | 1029.0 |
| 20260503223204 | 58 | 287 | 0.0 | 8.0 | 0.00 | 0.00 | 0.00 | 42 | 1012.2 |
| 20260503222726 | 58 | 250 | 0.0 | 2.0 | 0.00 | 0.00 | 0.00 | 41 | 1029.1 |
| 20260503222225 | 58 | 270 | 0.0 | 2.0 | 0.00 | 0.00 | 0.00 | 43 | 1028.9 |
| 20260503221723 | 58 | 231 | 3.0 | 8.0 | 0.00 | 0.00 | 0.00 | 41 | 1029.0 |
| 20260503221704 | 58 | 233 | 1.0 | 8.0 | 0.00 | 0.00 | 0.00 | 42 | 1012.3 |
| 20260503221221 | 58 | 232 | 2.0 | 7.0 | 0.00 | 0.00 | 0.00 | 42 | 1028.9 |
| 20260503221204 | 58 | 235 | 3.0 | 8.0 | 0.00 | 0.00 | 0.00 | 42 | 1012.4 |
| 20260503220717 | 58 | 222 | 3.0 | 5.0 | 0.00 | 0.00 | 0.00 | 39 | 1029.1 |
| 20260503220704 | 58 | 239 | 1.0 | 7.0 | 0.00 | 0.00 | 0.00 | 40 | 1012.3 |
| 20260503220214 | 59 | 253 | 0.0 | 7.0 | 0.00 | 0.00 | 0.00 | 40 | 1029.3 |
| 20260503215711 | 58 | 260 | 0.0 | 0.0 | 0.00 | 0.00 | 0.00 | 40 | 1029.0 |
| 20260503215208 | 58 | 228 | 0.0 | 2.0 | 0.00 | 0.00 | 0.00 | 40 | 1029.1 |
| 20260503215204 | 58 | 263 | 0.0 | 3.0 | 0.00 | 0.00 | 0.00 | 42 | 1012.4 |
| 20260503214706 | 58 | 280 | 2.0 | 3.0 | 0.00 | 0.00 | 0.00 | 40 | 1029.0 |
| 20260503214703 | 58 | 278 | 1.0 | 5.0 | 0.00 | 0.00 | 0.00 | 43 | 1012.4 |
| 20260503214203 | 58 | 284 | 0.0 | 1.0 | 0.00 | 0.00 | 0.00 | 41 | 1012.3 |
| 20260503214201 | 58 | 298 | 0.0 | 0.0 | 0.00 | 0.00 | 0.00 | 40 | 1029.0 |
| 20260503213655 | 58 | 290 | 0.0 | 0.0 | 0.00 | 0.00 | 0.00 | 41 | 1029.0 |
| 20260503213203 | 58 | 269 | 0.0 | 0.0 | 0.00 | 0.00 | 0.00 | 41 | 1012.5 |
| 20260503213152 | 58 | 271 | 0.0 | 0.0 | 0.00 | 0.00 | 0.00 | 39 | 1029.2 |
| 20260503212703 | 57 | 280 | 0.0 | 8.0 | 0.00 | 0.00 | 0.00 | 40 | 1012.5 |
| 20260503212649 | 57 | 288 | 0.0 | 0.0 | 0.00 | 0.00 | 0.00 | 40 | 1029.0 |
| 20260503212203 | 58 | 177 | 0.0 | 9.0 | 0.00 | 0.00 | 0.00 | 40 | 1012.4 |
| 20260503212146 | 58 | 287 | 0.0 | 5.0 | 0.00 | 0.00 | 0.00 | 40 | 1029.2 |
| 20260503211703 | 59 | 1 | 1.0 | 7.0 | 0.00 | 0.00 | 0.00 | 40 | 1012.4 |
| 20260503211644 | 59 | 313 | 2.0 | 7.0 | 0.00 | 0.00 | 0.00 | 40 | 1029.1 |
| 20260503211203 | 59 | 139 | 0.0 | 8.0 | 0.00 | 0.00 | 0.00 | 41 | 1012.3 |
| 20260503211139 | 59 | 215 | 0.0 | 3.0 | 0.00 | 0.00 | 0.00 | 38 | 1029.1 |
| 20260503210703 | 59 | 229 | 2.0 | 13.0 | 0.00 | 0.00 | 0.00 | 38 | 1012.1 |
| 20260503210636 | 59 | 223 | 3.0 | 8.0 | 0.00 | 0.00 | 0.00 | 38 | 1029.0 |
| 20260503210203 | 58 | 269 | 2.0 | 12.0 | 0.00 | 0.00 | 0.00 | 44 | 1012.2 |
| 20260503210133 | 59 | 208 | 4.0 | 11.0 | 0.00 | 0.00 | 0.00 | 41 | 1028.9 |
| 20260503205703 | 58 | 242 | 1.0 | 8.0 | 0.00 | 0.00 | 0.00 | 39 | 1012.3 |
| 20260503205628 | 58 | 249 | 0.0 | 3.0 | 0.00 | 0.00 | 0.00 | 40 | 1028.8 |
| 20260503205203 | 58 | 251 | 2.0 | 8.0 | 0.00 | 0.00 | 0.00 | 40 | 1012.5 |
| 20260503205125 | 58 | 249 | 3.0 | 8.0 | 0.00 | 0.00 | 0.00 | 40 | 1029.2 |
| 20260503204702 | 58 | 273 | 0.0 | 8.0 | 0.00 | 0.00 | 0.00 | 41 | 1012.4 |
| 20260503204622 | 58 | 256 | 0.0 | 2.0 | 0.00 | 0.00 | 0.00 | 40 | 1029.1 |
| 20260503204202 | 58 | 225 | 4.0 | 8.0 | 0.00 | 0.00 | 0.00 | 38 | 1012.3 |
| 20260503204119 | 58 | 224 | 5.0 | 8.0 | 0.00 | 0.00 | 0.00 | 38 | 1029.0 |
| 20260503203703 | 58 | 217 | 0.0 | 5.0 | 0.00 | 0.00 | 0.00 | 39 | 1012.4 |
| 20260503203616 | 59 | 209 | 0.0 | 5.0 | 0.00 | 0.00 | 0.00 | 39 | 1029.0 |
| 20260503203114 | 59 | 342 | 0.0 | 3.0 | 0.00 | 0.00 | 0.00 | 42 | 1029.2 |
| 20260503202703 | 58 | 322 | 0.0 | 5.0 | 0.00 | 0.00 | 0.00 | 42 | 1012.4 |
| 20260503202611 | 59 | 341 | 0.0 | 2.0 | 0.00 | 0.00 | 0.00 | 41 | 1029.1 |
| 20260503202203 | 58 | 307 | 1.0 | 9.0 | 0.00 | 0.00 | 0.00 | 42 | 1012.6 |
| 20260503202109 | 58 | 307 | 0.0 | 8.0 | 0.00 | 0.00 | 0.00 | 42 | 1029.3 |
| 20260503201703 | 58 | 326 | 4.0 | 14.0 | 0.00 | 0.00 | 0.00 | 40 | 1012.6 |
| 20260503201607 | 59 | 329 | 7.0 | 10.0 | 0.00 | 0.00 | 0.00 | 40 | 1029.3 |
| 20260503201203 | 59 | 134 | 5.0 | 14.0 | 0.00 | 0.00 | 0.00 | 40 | 1012.5 |
| 20260503201104 | 59 | 134 | 8.0 | 14.0 | 0.00 | 0.00 | 0.00 | 40 | 1029.2 |
| 20260503200703 | 59 | 301 | 0.0 | 9.0 | 0.00 | 0.00 | 0.00 | 39 | 1012.8 |
| 20260503200600 | 59 | 295 | 0.0 | 2.0 | 0.00 | 0.00 | 0.00 | 38 | 1029.5 |
| 20260503200203 | 59 | 267 | 2.0 | 12.0 | 0.00 | 0.00 | 0.00 | 41 | 1012.7 |
| 20260503200056 | 59 | 237 | 1.0 | 11.0 | 0.00 | 0.00 | 0.00 | 41 | 1029.3 |
| 20260503195548 | 59 | 215 | 0.0 | 7.0 | 0.00 | 0.00 | 0.00 | 40 | 1029.5 |
| 20260503195203 | 58 | 314 | 1.0 | 12.0 | 0.00 | 0.00 | 0.00 | 41 | 1012.9 |
| 20260503195044 | 58 | 296 | 2.0 | 7.0 | 0.00 | 0.00 | 0.00 | 41 | 1029.6 |
| 20260503194703 | 58 | 301 | 1.0 | 12.0 | 0.00 | 0.00 | 0.00 | 39 | 1012.8 |
| 20260503194542 | 58 | 251 | 1.0 | 3.0 | 0.00 | 0.00 | 0.00 | 39 | 1029.4 |
| 20260503194203 | 60 | 335 | 2.0 | 9.0 | 0.00 | 0.00 | 0.00 | 41 | 1013.0 |
| 20260503194041 | 60 | 355 | 2.0 | 7.0 | 0.00 | 0.00 | 0.00 | 41 | 1029.8 |
| 20260503193703 | 60 | 259 | 1.0 | 9.0 | 0.00 | 0.00 | 0.00 | 40 | 1012.8 |
| 20260503193539 | 60 | 257 | 0.0 | 0.0 | 0.00 | 0.00 | 0.00 | 39 | 1029.4 |
| 20260503193203 | 58 | 307 | 1.0 | 16.0 | 0.00 | 0.00 | 0.00 | 41 | 1013.0 |
| 20260503193039 | 58 | 325 | 1.0 | 8.0 | 0.00 | 0.00 | 0.00 | 41 | 1029.7 |
| 20260503192703 | 59 | 203 | 2.0 | 16.0 | 0.00 | 0.00 | 0.00 | 49 | 1013.1 |
| 20260503192535 | 59 | 213 | 1.0 | 5.0 | 0.00 | 0.00 | 0.00 | 41 | 1029.8 |
| 20260503192203 | 57 | 306 | 1.0 | 14.0 | 0.00 | 0.00 | 0.00 | 44 | 1012.9 |
| 20260503192031 | 57 | 315 | 0.0 | 5.0 | 0.00 | 0.00 | 0.00 | 45 | 1029.6 |
| 20260503191703 | 58 | 189 | 1.0 | 9.0 | 0.00 | 0.00 | 0.00 | 40 | 1013.2 |
| 20260503191528 | 58 | 180 | 2.0 | 5.0 | 0.00 | 0.00 | 0.00 | 40 | 1029.9 |
| 20260503191203 | 58 | 246 | 2.0 | 9.0 | 0.00 | 0.00 | 0.00 | 43 | 1013.3 |
| 20260503191025 | 57 | 313 | 0.0 | 2.0 | 0.00 | 0.00 | 0.00 | 44 | 1029.8 |
| 20260503190704 | 56 | 323 | 2.0 | 14.0 | 0.00 | 0.00 | 0.00 | 45 | 1013.2 |
| 20260503190522 | 57 | 330 | 7.0 | 14.0 | 0.00 | 0.00 | 0.00 | 40 | 1029.7 |
| 20260503190203 | 58 | 294 | 3.0 | 12.0 | 0.00 | 0.00 | 0.00 | 43 | 1013.3 |
| 20260503190019 | 57 | 256 | 2.0 | 7.0 | 0.00 | 0.00 | 0.00 | 43 | 1029.8 |
| 20260503185703 | 55 | 283 | 3.0 | 13.0 | 0.00 | 0.00 | 0.00 | 46 | 1013.2 |
| 20260503185515 | 55 | 353 | 9.0 | 13.0 | 0.00 | 0.00 | 0.00 | 45 | 1029.9 |
| 20260503185203 | 55 | 303 | 2.0 | 12.0 | 0.00 | 0.00 | 0.00 | 45 | 1013.4 |
| 20260503185010 | 55 | 7 | 1.0 | 10.0 | 0.00 | 0.00 | 0.00 | 45 | 1030.1 |
| 20260503184703 | 55 | 356 | 1.0 | 20.0 | 0.00 | 0.00 | 0.00 | 42 | 1013.4 |
| 20260503184506 | 55 | 270 | 0.0 | 19.0 | 0.00 | 0.00 | 0.00 | 44 | 1030.1 |
| 20260503184204 | 56 | 326 | 6.0 | 9.0 | 0.00 | 0.00 | 0.00 | 43 | 1013.4 |
| 20260503184002 | 57 | 349 | 8.0 | 10.0 | 0.00 | 0.00 | 0.00 | 43 | 1030.3 |
| 20260503183704 | 57 | 208 | 2.0 | 13.0 | 0.00 | 0.00 | 0.00 | 47 | 1013.4 |
| 20260503183459 | 56 | 317 | 1.0 | 3.0 | 0.00 | 0.00 | 0.00 | 44 | 1030.1 |
| 20260503183203 | 56 | 326 | 3.0 | 13.0 | 0.00 | 0.00 | 0.00 | 43 | 1013.5 |
| 20260503182955 | 56 | 314 | 2.0 | 13.0 | 0.00 | 0.00 | 0.00 | 43 | 1030.0 |
| 20260503182704 | 58 | 248 | 0.0 | 9.0 | 0.00 | 0.00 | 0.00 | 46 | 1013.4 |
| 20260503182450 | 57 | 24 | 0.0 | 7.0 | 0.00 | 0.00 | 0.00 | 50 | 1030.1 |
| 20260503181947 | 55 | 316 | 2.0 | 3.0 | 0.00 | 0.00 | 0.00 | 48 | 1030.2 |
| 20260503181703 | 55 | 320 | 1.0 | 17.0 | 0.00 | 0.00 | 0.00 | 46 | 1013.5 |
| 20260503181444 | 55 | 303 | 1.0 | 5.0 | 0.00 | 0.00 | 0.00 | 47 | 1030.3 |
| 20260503181203 | 56 | 0 | 2.0 | 17.0 | 0.00 | 0.00 | 0.00 | 43 | 1013.6 |
| 20260503180939 | 56 | 324 | 1.0 | 7.0 | 0.00 | 0.00 | 0.00 | 45 | 1030.5 |
| 20260503180703 | 55 | 330 | 0.0 | 13.0 | 0.00 | 0.00 | 0.00 | 46 | 1013.6 |
| 20260503180438 | 55 | 314 | 0.0 | 8.0 | 0.00 | 0.00 | 0.00 | 46 | 1030.5 |
| 20260503175934 | 54 | 333 | 3.0 | 10.0 | 0.00 | 0.00 | 0.00 | 48 | 1030.3 |
| 20260503175703 | 54 | 329 | 7.0 | 21.0 | 0.00 | 0.00 | 0.00 | 42 | 1013.6 |
| 20260503175433 | 54 | 333 | 10.0 | 18.0 | 0.00 | 0.00 | 0.00 | 45 | 1030.3 |
| 20260503175203 | 55 | 318 | 3.0 | 17.0 | 0.00 | 0.00 | 0.00 | 44 | 1013.5 |
| 20260503174928 | 55 | 301 | 3.0 | 18.0 | 0.00 | 0.00 | 0.00 | 43 | 1030.4 |
| 20260503174704 | 56 | 342 | 1.0 | 20.0 | 0.00 | 0.00 | 0.00 | 46 | 1013.5 |
| 20260503174426 | 56 | 340 | 6.0 | 14.0 | 0.00 | 0.00 | 0.00 | 46 | 1030.5 |
| 20260503174204 | 56 | 308 | 9.0 | 21.0 | 0.00 | 0.00 | 0.00 | 42 | 1013.7 |
| 20260503173926 | 56 | 326 | 9.0 | 14.0 | 0.00 | 0.00 | 0.00 | 44 | 1030.4 |
| 20260503173703 | 56 | 236 | 3.0 | 12.0 | 0.00 | 0.00 | 0.00 | 42 | 1013.4 |
| 20260503173423 | 56 | 181 | 1.0 | 7.0 | 0.00 | 0.00 | 0.00 | 45 | 1030.4 |
| 20260503172920 | 55 | 316 | 7.0 | 16.0 | 0.00 | 0.00 | 0.00 | 41 | 1030.6 |
| 20260503172705 | 55 | 331 | 5.0 | 20.0 | 0.00 | 0.00 | 0.00 | 45 | 1013.6 |
| 20260503172417 | 55 | 295 | 10.0 | 16.0 | 0.00 | 0.00 | 0.00 | 44 | 1030.7 |
| 20260503171913 | 55 | 349 | 6.0 | 8.0 | 0.00 | 0.00 | 0.00 | 44 | 1030.7 |
| 20260503171703 | 54 | 331 | 6.0 | 16.0 | 0.00 | 0.00 | 0.00 | 44 | 1013.9 |
| 20260503171410 | 54 | 191 | 1.0 | 11.0 | 0.00 | 0.00 | 0.00 | 41 | 1030.5 |
| 20260503171204 | 54 | 13 | 6.0 | 21.0 | 0.00 | 0.00 | 0.00 | 45 | 1014.0 |
| 20260503170908 | 54 | 317 | 7.0 | 21.0 | 0.00 | 0.00 | 0.00 | 47 | 1030.3 |
| 20260503170703 | 54 | 295 | 1.0 | 16.0 | 0.00 | 0.00 | 0.00 | 44 | 1014.0 |
| 20260503170404 | 54 | 345 | 4.0 | 14.0 | 0.00 | 0.00 | 0.00 | 43 | 1030.4 |
| 20260503170204 | 54 | 328 | 5.0 | 20.0 | 0.00 | 0.00 | 0.00 | 45 | 1013.9 |
| 20260503160203 | 54 | 326 | 5.0 | 17.0 | 0.00 | 0.00 | 0.00 | 49 | 1014.3 |
| 20260503150756 | 51 | 271 | 0.0 | 8.0 | 0.00 | 0.00 | 0.00 | 51 | 1031.3 |
| 20260503150703 | 50 | 289 | 1.0 | 8.0 | 0.00 | 0.00 | 0.00 | 58 | 1014.4 |
| 20260503150252 | 49 | 7 | 0.0 | 2.0 | 0.00 | 0.00 | 0.00 | 57 | 1031.4 |
| 20260503150204 | 48 | 277 | 0.0 | 13.0 | 0.00 | 0.00 | 0.00 | 57 | 1014.7 |
| 20260503140217 | 48 | 341 | 4.0 | 7.0 | 0.00 | 0.00 | 0.00 | 61 | 1031.4 |
| 20260503131203 | 47 | 310 | 1.0 | 9.0 | 0.00 | 0.00 | 0.00 | 64 | 1014.4 |
| 20260503131146 | 47 | 278 | 0.0 | 0.0 | 0.00 | 0.00 | 0.00 | 63 | 1031.2 |
| 20260503130704 | 49 | 20 | 5.0 | 9.0 | 0.00 | 0.00 | 0.00 | 62 | 1014.4 |
| 20260503130643 | 49 | 354 | 5.0 | 10.0 | 0.00 | 0.00 | 0.00 | 61 | 1031.1 |
| 20260503130204 | 47 | 288 | 5.0 | 13.0 | 0.00 | 0.00 | 0.00 | 62 | 1014.5 |
| 20260503130141 | 47 | 288 | 0.0 | 8.0 | 0.00 | 0.00 | 0.00 | 63 | 1031.1 |
| 20260503120203 | 45 | 337 | 1.0 | 13.0 | 0.00 | 0.00 | 0.00 | 66 | 1014.3 |
| 20260503120106 | 45 | 325 | 2.0 | 5.0 | 0.00 | 0.00 | 0.00 | 65 | 1031.0 |
| 20260503110703 | 43 | 315 | 2.0 | 7.0 | 0.00 | 0.00 | 0.00 | 74 | 1013.5 |
| 20260503110533 | 43 | 314 | 0.0 | 7.0 | 0.00 | 0.00 | 0.00 | 74 | 1030.2 |
| 20260503110203 | 42 | 301 | 1.0 | 8.0 | 0.00 | 0.00 | 0.00 | 74 | 1013.4 |
| 20260503100203 | 41 | 302 | 0.0 | 7.0 | 0.00 | 0.00 | 0.00 | 79 | 1012.7 |
| 20260503090420 | 41 | 313 | 0.0 | 0.0 | 0.00 | 0.00 | 0.00 | 84 | 1028.9 |
| 20260503090203 | 41 | 303 | 0.0 | 1.0 | 0.00 | 0.00 | 0.00 | 84 | 1012.3 |
| 20260503081341 | 39 | 300 | 0.0 | 0.0 | 0.00 | 0.00 | 0.00 | 87 | 1028.5 |
| 20260503080838 | 39 | 268 | 0.0 | 0.0 | 0.00 | 0.00 | 0.00 | 88 | 1028.5 |
| 20260503080703 | 39 | 268 | 0.0 | 0.0 | 0.00 | 0.00 | 0.00 | 88 | 1011.8 |
| 20260503080335 | 39 | 268 | 0.0 | 0.0 | 0.00 | 0.00 | 0.00 | 88 | 1028.5 |
| 20260503080203 | 39 | 268 | 0.0 | 0.0 | 0.00 | 0.00 | 0.00 | 87 | 1011.5 |
| 20260503072811 | 39 | 303 | 0.0 | 0.0 | 0.00 | 0.00 | 0.00 | 86 | 1027.9 |
| 20260503072704 | 39 | 303 | 0.0 | 0.0 | 0.00 | 0.00 | 0.00 | 86 | 1011.4 |
| 20260503072308 | 40 | 303 | 0.0 | 0.0 | 0.00 | 0.00 | 0.00 | 85 | 1028.2 |
| 20260503072203 | 40 | 303 | 0.0 | 0.0 | 0.00 | 0.00 | 0.00 | 84 | 1011.3 |
| 20260503071803 | 41 | 303 | 0.0 | 0.0 | 0.00 | 0.00 | 0.00 | 83 | 1028.1 |
| 20260503071704 | 41 | 303 | 0.0 | 1.0 | 0.00 | 0.00 | 0.00 | 82 | 1011.2 |
| 20260503071256 | 41 | 303 | 0.0 | 2.0 | 0.00 | 0.00 | 0.00 | 81 | 1028.0 |
| 20260503071203 | 41 | 296 | 0.0 | 7.0 | 0.00 | 0.00 | 0.00 | 81 | 1011.2 |
| 20260503070752 | 41 | 315 | 0.0 | 7.0 | 0.00 | 0.00 | 0.00 | 81 | 1027.9 |
| 20260503070704 | 41 | 312 | 0.0 | 3.0 | 0.00 | 0.00 | 0.00 | 81 | 1011.0 |
| 20260503070250 | 41 | 317 | 0.0 | 0.0 | 0.00 | 0.00 | 0.00 | 81 | 1027.8 |
| 20260503070204 | 41 | 321 | 0.0 | 5.0 | 0.00 | 0.00 | 0.00 | 82 | 1011.2 |
| 20260503060209 | 42 | 262 | 0.0 | 0.0 | 0.00 | 0.00 | 0.00 | 79 | 1028.2 |
| 20260503060204 | 42 | 262 | 0.0 | 0.0 | 0.00 | 0.00 | 0.00 | 79 | 1011.5 |
| 20260503054704 | 43 | 273 | 0.0 | 0.0 | 0.00 | 0.00 | 0.00 | 78 | 1011.6 |
| 20260503054656 | 43 | 273 | 0.0 | 0.0 | 0.00 | 0.00 | 0.00 | 78 | 1028.3 |
| 20260503054204 | 43 | 314 | 0.0 | 1.0 | 0.00 | 0.00 | 0.00 | 77 | 1011.8 |
| 20260503054153 | 43 | 314 | 0.0 | 0.0 | 0.00 | 0.00 | 0.00 | 77 | 1028.3 |
| 20260503053704 | 43 | 290 | 0.0 | 1.0 | 0.00 | 0.00 | 0.00 | 77 | 1011.7 |
| 20260503053651 | 43 | 320 | 0.0 | 2.0 | 0.00 | 0.00 | 0.00 | 77 | 1028.5 |
| 20260503053204 | 43 | 303 | 0.0 | 5.0 | 0.00 | 0.00 | 0.00 | 76 | 1011.6 |
| 20260503053150 | 43 | 285 | 0.0 | 0.0 | 0.00 | 0.00 | 0.00 | 76 | 1028.4 |
| 20260503052704 | 44 | 330 | 1.0 | 5.0 | 0.00 | 0.00 | 0.00 | 76 | 1011.6 |
| 20260503052645 | 44 | 335 | 4.0 | 5.0 | 0.00 | 0.00 | 0.00 | 76 | 1028.2 |
| 20260503052204 | 44 | 297 | 0.0 | 1.0 | 0.00 | 0.00 | 0.00 | 75 | 1011.7 |
| 20260503052142 | 44 | 297 | 0.0 | 0.0 | 0.00 | 0.00 | 0.00 | 76 | 1028.2 |
| 20260503051704 | 44 | 309 | 1.0 | 8.0 | 0.00 | 0.00 | 0.00 | 75 | 1011.8 |
| 20260503051637 | 44 | 307 | 0.0 | 2.0 | 0.00 | 0.00 | 0.00 | 75 | 1028.5 |
| 20260503051204 | 44 | 312 | 0.0 | 5.0 | 0.00 | 0.00 | 0.00 | 75 | 1011.6 |
| 20260503051135 | 44 | 322 | 0.0 | 5.0 | 0.00 | 0.00 | 0.00 | 75 | 1028.5 |
| 20260503050704 | 44 | 326 | 1.0 | 8.0 | 0.00 | 0.00 | 0.00 | 74 | 1011.9 |
| 20260503050632 | 44 | 329 | 3.0 | 5.0 | 0.00 | 0.00 | 0.00 | 74 | 1028.6 |
| 20260503050203 | 44 | 306 | 0.0 | 7.0 | 0.00 | 0.00 | 0.00 | 75 | 1011.9 |
| 20260503050128 | 44 | 306 | 0.0 | 3.0 | 0.00 | 0.00 | 0.00 | 75 | 1028.6 |
| 20260503045703 | 44 | 314 | 0.0 | 7.0 | 0.00 | 0.00 | 0.00 | 75 | 1011.8 |
| 20260503045626 | 44 | 315 | 0.0 | 7.0 | 0.00 | 0.00 | 0.00 | 75 | 1028.5 |
| 20260503045123 | 44 | 318 | 2.0 | 5.0 | 0.00 | 0.00 | 0.00 | 74 | 1028.7 |
| 20260503044620 | 44 | 303 | 0.0 | 2.0 | 0.00 | 0.00 | 0.00 | 74 | 1028.3 |
| 20260503044117 | 44 | 305 | 0.0 | 0.0 | 0.00 | 0.00 | 0.00 | 74 | 1028.7 |
| 20260503043704 | 45 | 302 | 0.0 | 7.0 | 0.00 | 0.00 | 0.00 | 73 | 1012.1 |
| 20260503043614 | 45 | 299 | 0.0 | 5.0 | 0.00 | 0.00 | 0.00 | 73 | 1028.7 |
| 20260503043204 | 45 | 323 | 1.0 | 9.0 | 0.00 | 0.00 | 0.00 | 72 | 1012.1 |
| 20260503043110 | 45 | 327 | 1.0 | 7.0 | 0.00 | 0.00 | 0.00 | 72 | 1028.7 |
| 20260503042704 | 45 | 299 | 0.0 | 5.0 | 0.00 | 0.00 | 0.00 | 72 | 1012.3 |
| 20260503042607 | 45 | 299 | 0.0 | 0.0 | 0.00 | 0.00 | 0.00 | 72 | 1029.0 |
| 20260503042204 | 45 | 313 | 1.0 | 7.0 | 0.00 | 0.00 | 0.00 | 72 | 1012.2 |
| 20260503042103 | 45 | 313 | 0.0 | 5.0 | 0.00 | 0.00 | 0.00 | 72 | 1028.9 |
| 20260503041704 | 45 | 300 | 0.0 | 0.0 | 0.00 | 0.00 | 0.00 | 72 | 1012.5 |
| 20260503041559 | 46 | 300 | 0.0 | 0.0 | 0.00 | 0.00 | 0.00 | 72 | 1029.2 |
| 20260503041206 | 46 | 295 | 0.0 | 5.0 | 0.00 | 0.00 | 0.00 | 71 | 1012.5 |
| 20260503041058 | 46 | 295 | 0.0 | 3.0 | 0.00 | 0.00 | 0.00 | 71 | 1029.2 |
| 20260503040707 | 46 | 265 | 1.0 | 3.0 | 0.00 | 0.00 | 0.00 | 71 | 1012.6 |
| 20260503040555 | 46 | 264 | 0.0 | 3.0 | 0.00 | 0.00 | 0.00 | 71 | 1029.3 |
| 20260503040052 | 46 | 310 | 0.0 | 0.0 | 0.00 | 0.00 | 0.00 | 70 | 1029.0 |
| 20260503035548 | 47 | 308 | 0.0 | 0.0 | 0.00 | 0.00 | 0.00 | 70 | 1029.1 |
| 20260503035046 | 47 | 318 | 0.0 | 3.0 | 0.00 | 0.00 | 0.00 | 70 | 1029.2 |
| 20260503034543 | 47 | 311 | 0.0 | 2.0 | 0.00 | 0.00 | 0.00 | 70 | 1029.3 |
| 20260503034203 | 46 | 314 | 0.0 | 1.0 | 0.00 | 0.00 | 0.00 | 70 | 1012.4 |
| 20260503034041 | 46 | 314 | 0.0 | 2.0 | 0.00 | 0.00 | 0.00 | 70 | 1028.9 |
| 20260503033702 | 46 | 312 | 0.0 | 0.0 | 0.00 | 0.00 | 0.00 | 70 | 1012.5 |
| 20260503033538 | 46 | 312 | 0.0 | 0.0 | 0.00 | 0.00 | 0.00 | 70 | 1029.2 |
| 20260503033203 | 46 | 311 | 0.0 | 0.0 | 0.00 | 0.00 | 0.00 | 69 | 1012.5 |
| 20260503033036 | 46 | 311 | 0.0 | 0.0 | 0.00 | 0.00 | 0.00 | 69 | 1029.1 |
| 20260503032703 | 46 | 311 | 0.0 | 0.0 | 0.00 | 0.00 | 0.00 | 69 | 1012.6 |
| 20260503032534 | 46 | 311 | 0.0 | 0.0 | 0.00 | 0.00 | 0.00 | 69 | 1029.3 |
| 20260503032203 | 46 | 311 | 0.0 | 0.0 | 0.00 | 0.00 | 0.00 | 69 | 1012.7 |
| 20260503032031 | 46 | 311 | 0.0 | 0.0 | 0.00 | 0.00 | 0.00 | 69 | 1029.4 |
| 20260503031703 | 46 | 292 | 0.0 | 0.0 | 0.00 | 0.00 | 0.00 | 68 | 1012.5 |
| 20260503031529 | 46 | 292 | 0.0 | 0.0 | 0.00 | 0.00 | 0.00 | 68 | 1029.1 |
| 20260503031026 | 46 | 304 | 0.0 | 0.0 | 0.00 | 0.00 | 0.00 | 68 | 1029.2 |
| 20260503030703 | 47 | 304 | 0.0 | 1.0 | 0.00 | 0.00 | 0.00 | 67 | 1012.6 |
| 20260503030522 | 47 | 304 | 0.0 | 0.0 | 0.00 | 0.00 | 0.00 | 66 | 1029.3 |
| 20260503030202 | 47 | 295 | 0.0 | 0.0 | 0.00 | 0.00 | 0.00 | 66 | 1012.7 |
| 20260503030019 | 47 | 295 | 0.0 | 0.0 | 0.00 | 0.00 | 0.00 | 66 | 1029.2 |